Regional Weather Roundup
Issued by NWS

Home | Current Version | Previous Version | Text Only | Print | Product List | Glossary On
Versions: 1 2 3 4 5 6 7 8 9 10 11 12 13 14 15 16 17 18 19 20 21 22 23 24 25 26 27 28 29 30 31 32 33 34 35 36 37 38 39 40 41 42 43 44 45 46 47 48 49 50
000
ASUS43 KFSD 281410
RWRSD

WEATHER ROUNDUP FOR SOUTH DAKOTA
NATIONAL WEATHER SERVICE SIOUX FALLS SD
900 AM CDT FRI AUG 28 2015

NOTE: "FAIR" INDICATES FEW OR NO CLOUDS BELOW 12,000 FEET WITH NO
SIGNIFICANT WEATHER AND/OR OBSTRUCTIONS TO VISIBILITY.


SDZ001>005-009-010-012>017-281500-
NORTHWEST AND NORTH CENTRAL SOUTH DAKOTA

CITY           SKY/WX    TMP DP  RH WIND       PRES   REMARKS
BUFFALO          N/A     60  54  80 SW5       29.94R
FAITH            N/A     61  59  93 SW8       29.98S
MOBRIDGE       FOG       68  68 100 SW6       29.93S VSB 3/4
$$

SDZ012>016-024>037-041>051-057-063-072>074-281500-
SOUTHWEST AND SOUTH CENTRAL SOUTH DAKOTA

CITY           SKY/WX    TMP DP  RH WIND       PRES   REMARKS
RAPID CTY ARPT MOSUNNY   62  58  86 CALM      30.04R
PIERRE         PTSUNNY   68  66  93 SE3       29.95R
CUSTER         SUNNY     63  45  51 CALM      30.18R
ELLSWORTH AFB  SUNNY     62  56  81 W5        30.03R
PHILIP         FOG       63  63 100 W3        29.99R VSB<1/4
PINE RIDGE     MOSUNNY   58  53  84 W3        30.05R
WINNER         CLOUDY    67  65  93 NW7       29.95S
$$

SDZ004>011-016>023-039-040-281500-
NORTHEAST SOUTH DAKOTA

CITY           SKY/WX    TMP DP  RH WIND       PRES   REMARKS
ABERDEEN       MOSUNNY   64  63  96 S7        29.94S
WATERTOWN      PTSUNNY   67  63  87 SE6       29.96F
BROOKINGS      PTSUNNY   66  61  82 NE8       29.97S
SISSETON         N/A     66  65  96 S7        29.94R
$$

SDZ017-020-022-023-036>040-048>070-281500-
SOUTHEAST SOUTH DAKOTA

CITY           SKY/WX    TMP DP  RH WIND       PRES   REMARKS
SIOUX FALLS    CLOUDY    65  63  93 E9        29.92R
HURON          MOSUNNY   67  64  90 E7        29.93S
CHAMBERLAIN    CLOUDY    65  65  98 NE3       29.95R
MITCHELL       CLOUDY    67  65  93 NE7       29.93R
YANKTON        CLOUDY    64  63  94 N13       29.87R
$$

ABBREVIATIONS USED IN REMARKS
   TC - TEMPERATURE IN CELSIUS
  WCI - WIND CHILL INDEX
   HX - HEAT INDEX
  VSB - VISIBILITY



USA.gov is the U.S. government's official web portal to all federal, state and local government web resources and services.